Location: Dreilärchen
(47.9312°N, 8.6113°E)
Time: 02:59:34
(UTC+00:00)

Cosmos 292 Rocket - Pass Details

Date: 26 May 2022
Orbit: 674 x 692 km, 74.0° (Epoch: 26 June)

Event Time Altitude Azimuth Distance (km) Brightness Sun altitude
Exits shadow 01:48:12 17° 186° (S) 1,705 5.3 -13.6°
Maximum altitude 01:51:50 64° 109° (ESE) 760 4.0 -13.3°
Drops below altitude 10° 01:56:34 10° 28° (NNE) 2,132 7.8 -12.8°
Sets 01:58:54 0° 26° (NNE) 3,048 8.9 -12.6°
